This is the latest recevied weather packets stored in our database for station/object OK5TVR-5. If no packets are shown the sender has not sent any weather packets the latest 10 day(s).
| Time | Temp. | Humidity | Pressure | Rain* | Wind** | Luminosity | Snow |
|---|---|---|---|---|---|---|---|
| 1788584841 | 12.78° C | 93% | 1012.8 hPa | 0 mm | - | 11 W/m² | - |
| 1788583941 | 13.33° C | 91% | 1012.4 hPa | 0 mm | - | 4 W/m² | - |
| 1788583041 | 13.33° C | 89% | 1012.3 hPa | 0.76 mm | - | 2 W/m² | - |
| 1788582141 | 13.33° C | 88% | 1012.3 hPa | 1.27 mm | - | 0 W/m² | - |
| 1788581241 | 13.33° C | 90% | 1011.8 hPa | 1.78 mm | - | 0 W/m² | - |
| 1788580341 | 14.44° C | 83% | 1011.2 hPa | 2.03 mm | - | 0 W/m² | - |
| 1788579441 | 15° C | 82% | 1011.8 hPa | 1.02 mm | - | 0 W/m² | - |
| 1788578541 | 14.44° C | 84% | 1012.2 hPa | 0.76 mm | - | 0 W/m² | - |
| 1788577641 | 15° C | 81% | 1011.9 hPa | 0.51 mm | - | 0 W/m² | - |
| 1788576741 | 16.11° C | 76% | 1011.4 hPa | 0.25 mm | - | 0 W/m² | - |
| 1788575841 | 15.56° C | 75% | 1011.3 hPa | 0.25 mm | - | 0 W/m² | - |
| 1788574941 | 16.11° C | 72% | 1011 hPa | 0 mm | - | 0 W/m² | - |
| 1788574041 | 17.22° C | 74% | 1011 hPa | 0 mm | - | 0 W/m² | - |
| 1788573141 | 17.78° C | 71% | 1009.6 hPa | 0 mm | - | 0 W/m² | - |
| 1788572241 | 17.78° C | 70% | 1009.3 hPa | 0 mm | - | 0 W/m² | - |
| 1788571341 | 17.22° C | 72% | 1009.6 hPa | 0 mm | - | 0 W/m² | - |
| 1788570441 | 17.78° C | 67% | 1009.5 hPa | 0 mm | - | 0 W/m² | - |
| 1788569541 | 17.78° C | 66% | 1009.1 hPa | 0 mm | - | 0 W/m² | - |
| 1788568641 | 18.33° C | 66% | 1009 hPa | 0 mm | - | 0 W/m² | - |
| 1788567741 | 18.33° C | 66% | 1009 hPa | 0 mm | - | 0 W/m² | - |
| 1788566841 | 18.33° C | 67% | 1008.8 hPa | 0 mm | - | 0 W/m² | - |
| 1788565941 | 18.89° C | 68% | 1008.7 hPa | 0 mm | - | 0 W/m² | - |
| 1788565041 | 18.89° C | 67% | 1008.5 hPa | 0 mm | - | 0 W/m² | - |
| 1788564141 | 20° C | 62% | 1008.4 hPa | 0 mm | - | 0 W/m² | - |
| 1788563241 | 20.56° C | 63% | 1007.6 hPa | 0 mm | - | 0 W/m² | - |
* Rain latest hour (hover to see other rain measurements)
** Current wind speed in m/s (hover to see current wind gust speed)